Wind_Speed
31 31 30 28 28 27 25 24 29 25 24 31 33 33 32 33 32 31 31 30 36 34 31 27 28 27 29 26 23 24 27 29 29 25 21 21 15 14 17 17 19 19 16
31 30 30 31 29 29 27 27 25 28 29 26 33 33 32 33 36 35 35 32 33 38 36 32 29 28 30 30 28 25 31 30 30 27 22 20 18 14 14 17 18 19 18
30 29 29 28 30 29 29 28 27 26 28 34 31 33 37 38 35 38 38 36 36 35 38 36 34 29 29 33 33 30 34 32 31 27 27 23 21 17 14 15 19 18 19
29 30 30 28 28 29 29 30 29 28 28 31 35 32 33 37 40 40 38 40 38 39 36 38 37 34 31 33 38 36 37 36 35 31 28 27 25 20 16 15 17 20 20
29 29 29 29 28 27 28 29 29 29 29 28 31 37 39 36 38 42 42 42 41 40 40 36 39 36 34 29 45 41 38 39 37 35 31 30 28 22 19 18 20 20 22
28 28 28 27 28 27 26 27 29 29 27 28 32 35 36 40 41 41 42 44 46 42 41 40 41 39 38 33 32 42 37 36 41 36 35 29 29 25 21 19 21 21 21
30 28 28 27 26 26 26 26 27 28 27 23 29 32 34 35 37 43 45 41 47 45 44 43 40 41 40 36 27 36 38 40 38 41 38 31 29 26 23 21 23 24 23
28 29 28 27 26 27 25 25 24 26 26 18 17 21 17 25 36 41 41 46 49 53 50 47 44 44 42 39 36 37 44 40 39 40 39 35 32 29 25 23 25 25 25
30 28 27 27 26 25 26 25 24 20 25 23 13 10 8 6 10 35 41 41 50 53 51 48 48 46 45 43 37 34 48 46 43 43 42 38 34 31 26 23 24 25 26
30 29 27 26 26 25 25 25 24 23 23 26 21 14 15 17 5 10 19 46 46 52 52 51 55 45 47 46 40 33 39 43 49 45 44 40 37 33 29 24 22 24 26
30 29 27 25 25 26 25 24 25 24 23 24 20 22 25 22 19 17 24 17 33 45 52 47 49 48 49 49 43 39 35 42 45 44 46 43 38 36 32 28 23 22 23
33 31 30 28 26 26 26 25 25 25 24 23 22 21 20 16 14 11 9 20 17 31 50 55 56 52 52 52 48 42 37 40 52 51 50 43 40 38 35 32 27 23 21
35 34 32 31 29 27 27 26 26 26 25 25 23 22 18 24 23 20 20 25 16 15 32 55 56 59 58 56 52 47 38 40 44 46 47 45 42 41 38 34 30 26 23
35 34 32 31 30 28 27 26 27 27 26 24 24 21 22 22 19 20 21 22 23 25 21 36 54 61 58 57 56 51 43 39 46 48 52 54 47 43 40 37 33 30 27
33 33 31 31 30 28 27 27 27 27 26 26 25 23 20 22 22 18 19 19 17 9 15 21 37 55 62 59 56 51 48 42 42 50 49 50 50 47 44 41 36 31 30
31 31 31 30 30 28 26 27 28 27 27 27 25 24 23 19 17 23 22 25 27 22 19 19 18 17 48 55 60 56 52 47 42 47 52 52 52 51 48 45 42 34 30
31 30 30 30 30 29 28 27 28 28 28 27 25 23 19 18 21 20 19 19 24 27 28 41 29 15 21 49 56 60 53 49 43 45 52 53 51 53 50 49 52 41 32
30 30 30 30 30 30 29 29 29 29 28 28 27 27 25 21 20 20 21 22 19 23 24 31 33 32 15 46 54 58 53 48 46 45 48 55 53 52 52 54 51 47 34
29 29 29 30 29 29 29 29 29 30 30 28 27 26 25 21 21 20 19 16 20 21 25 28 32 31 23 13 46 57 54 50 49 44 45 52 53 53 52 52 38 37 39
29 29 28 29 28 28 28 29 29 29 30 29 27 27 26 24 19 20 20 20 20 21 24 29 36 36 32 14 19 44 54 54 51 49 47 47 53 53 53 51 47 43 41
29 29 29 29 28 27 27 28 28 28 28 27 25 24 24 23 22 21 21 22 19 19 22 26 34 38 33 24 7 33 50 51 60 56 47 45 47 54 49 48 51 47 44
29 29 29 27 27 27 27 25 26 29 29 29 28 26 24 22 22 23 24 24 24 25 25 25 29 35 33 32 27 5 24 45 37 50 49 46 50 54 58 58 56 48 47
30 29 28 26 25 25 24 23 25 26 29 31 30 29 27 25 21 22 21 23 24 25 27 27 28 32 36 39 28 26 14 24 41 43 49 50 52 52 53 58 53 50 48
28 28 25 23 23 23 22 22 23 23 26 27 28 28 28 27 25 24 25 26 28 29 30 30 33 35 36 32 38 29 23 15 15 35 54 45 56 54 54 54 55 52 49
25 24 24 21 20 21 17 19 20 22 25 28 29 27 26 26 24 23 25 26 27 29 27 25 27 31 34 34 36 38 34 24 20 23 47 45 44 54 57 59 58 51 50
24 22 21 19 18 18 15 14 15 18 23 24 24 24 23 25 25 23 23 24 26 27 25 26 26 25 25 28 32 40 43 35 22 21 40 46 44 49 42 59 59 54 50
Wind_Direction
315 310 307 304 300 298 294 283 270 269 257 244 242 241 239 239 239 234 232 231 229 230 237 238 236 235 227 220 218 211 203 202 213 220 223 233 209 204 193 185 184 182 180
314 312 306 304 301 297 296 291 281 269 263 262 243 239 239 242 239 236 230 229 233 232 235 238 240 235 230 227 221 216 206 205 212 217 225 205 207 197 198 194 189 188 185
314 309 307 303 301 298 295 291 284 276 268 259 259 246 239 240 242 238 234 229 232 235 236 237 241 235 234 229 225 215 208 208 214 218 221 215 208 202 199 198 196 190 188
314 309 306 303 301 299 297 294 288 280 274 264 258 255 245 236 245 240 236 233 230 231 236 237 237 239 241 238 227 218 210 210 215 215 215 215 210 208 208 205 201 191 192
315 312 308 305 301 299 298 297 291 288 279 274 266 255 250 242 240 243 238 236 233 233 233 235 237 238 241 240 231 222 216 210 213 215 212 212 214 212 212 208 203 197 197
317 315 311 307 303 300 296 296 295 291 285 280 275 262 251 244 239 244 247 241 236 233 235 237 236 233 237 242 253 207 218 214 214 215 213 215 216 215 216 214 208 202 201
320 316 314 309 305 301 298 297 298 297 286 285 284 275 257 246 240 237 239 233 232 238 238 233 235 230 234 236 244 214 219 218 210 213 210 213 218 219 219 219 212 205 202
316 315 314 311 306 302 298 296 299 297 290 287 297 297 286 259 241 242 236 238 234 230 231 229 235 227 229 232 233 231 226 218 210 212 212 212 213 221 222 217 208 207 201
314 314 312 309 307 304 300 297 299 300 293 287 264 270 304 276 278 238 244 242 242 233 235 236 228 227 225 230 233 237 224 214 211 209 211 212 210 219 222 216 208 206 202
314 313 311 307 305 303 299 295 293 290 293 290 285 244 246 267 320 298 232 235 246 234 230 232 228 225 223 225 229 230 224 210 205 206 211 213 211 215 217 213 208 206 204
311 311 311 308 302 300 298 294 291 288 286 285 285 277 259 270 262 272 275 276 245 241 235 234 228 223 223 222 224 227 230 227 214 211 210 212 212 211 215 210 211 206 206
311 310 309 307 304 300 297 292 289 285 284 279 276 276 270 271 245 278 289 276 287 234 237 226 231 221 224 223 223 224 227 227 218 213 210 209 211 208 209 211 210 211 210
308 307 305 302 301 298 294 291 287 284 281 280 276 275 272 257 259 266 271 274 287 283 229 226 222 220 223 222 224 223 225 230 226 212 212 211 213 212 210 210 211 212 213
304 303 301 298 297 296 293 290 286 282 280 277 275 270 272 268 257 260 266 277 294 277 265 213 226 224 220 221 223 222 225 228 225 222 219 217 212 214 215 214 212 211 213
304 302 299 294 292 290 287 285 282 279 277 275 274 269 272 264 261 260 253 256 266 298 291 229 215 227 223 225 224 220 225 226 225 222 222 218 217 216 216 216 216 215 212
302 300 298 295 292 288 284 282 281 278 277 276 274 272 268 270 264 257 255 257 258 261 268 254 205 213 234 231 230 223 222 227 228 224 222 223 219 219 220 219 217 214 218
303 299 297 294 290 287 283 281 280 279 276 276 274 272 270 261 269 264 260 253 255 256 266 254 255 274 231 232 222 222 222 226 228 227 223 223 223 222 222 224 223 213 214
304 300 296 292 289 286 282 279 277 277 275 274 274 272 269 268 265 268 259 257 261 259 268 264 269 271 285 222 218 221 217 222 229 228 223 223 224 224 224 228 222 212 216
307 302 298 293 290 286 283 278 275 274 274 272 273 271 271 270 262 266 268 257 253 249 253 260 270 263 268 217 219 225 216 220 225 227 222 224 224 224 228 226 217 220 219
309 306 300 296 290 286 282 279 275 273 272 271 270 270 271 269 258 259 263 262 256 259 258 261 264 268 268 240 221 220 218 222 225 226 226 226 224 225 231 230 223 222 225
314 310 304 296 290 286 282 278 275 272 272 274 273 272 269 265 258 257 259 265 267 262 259 259 261 266 269 262 277 221 222 223 223 226 225 224 223 223 220 222 230 227 228
317 312 307 301 291 285 283 270 266 273 277 276 277 277 273 267 258 256 256 256 258 263 266 262 257 261 261 267 247 344 225 207 206 227 222 221 212 215 214 222 229 226 227
321 318 313 308 297 286 285 276 266 263 264 268 271 272 273 270 263 261 260 260 258 254 252 256 259 255 257 262 261 261 293 219 217 218 218 218 219 223 224 222 224 226 225
329 331 325 313 305 296 287 276 269 266 266 267 268 269 268 268 265 264 266 264 260 259 251 246 243 251 252 259 259 264 277 261 250 223 224 210 219 221 223 223 223 224 222
337 338 338 327 312 305 297 284 268 264 263 262 266 267 268 270 267 261 258 261 266 266 266 257 257 260 255 255 252 258 262 276 279 224 204 217 215 217 220 223 223 223 222
352 344 347 342 339 329 323 303 279 273 272 272 274 274 268 263 267 260 254 257 261 265 270 271 266 263 261 259 253 249 254 256 263 286 208 205 210 209 204 220 221 219 219
Height
1504 1501 1500 1498 1495 1494 1493 1492 1493 1492 1491 1492 1493 1494 1496 1498 1500 1502 1506 1510 1514 1517 1519 1521 1523 1526 1528 1532 1535 1537 1540 1542 1545 1548 1549 1551 1552 1553 1554 1555 1557 1558 1561
1499 1497 1495 1492 1490 1489 1487 1487 1486 1486 1486 1485 1485 1487 1489 1491 1493 1495 1498 1503 1507 1511 1514 1517 1518 1521 1523 1526 1530 1534 1537 1539 1542 1545 1547 1550 1551 1551 1552 1554 1555 1557 1559
1494 1494 1492 1490 1487 1484 1483 1482 1480 1478 1478 1479 1478 1478 1481 1483 1484 1487 1490 1494 1500 1503 1507 1510 1513 1517 1520 1522 1525 1528 1533 1536 1538 1541 1544 1547 1548 1549 1550 1551 1554 1556 1557
1491 1489 1487 1485 1481 1480 1477 1475 1474 1472 1472 1471 1472 1470 1471 1473 1475 1478 1481 1485 1490 1494 1499 1503 1507 1511 1515 1517 1518 1523 1527 1530 1534 1538 1541 1544 1546 1547 1548 1549 1550 1553 1556
1488 1485 1483 1480 1477 1475 1473 1469 1469 1466 1463 1464 1463 1462 1462 1463 1466 1468 1472 1476 1480 1485 1491 1495 1500 1504 1508 1511 1513 1514 1520 1525 1528 1533 1538 1540 1542 1544 1545 1546 1548 1550 1553
1484 1481 1479 1475 1473 1470 1468 1465 1462 1461 1457 1458 1455 1455 1454 1455 1457 1457 1461 1467 1470 1474 1481 1487 1493 1496 1501 1505 1505 1505 1512 1518 1524 1528 1533 1537 1539 1541 1542 1543 1545 1547 1550
1480 1477 1474 1471 1470 1466 1465 1463 1459 1456 1455 1453 1450 1447 1444 1444 1447 1449 1453 1455 1459 1464 1472 1477 1482 1488 1493 1498 1501 1503 1506 1512 1516 1521 1526 1531 1536 1538 1539 1540 1542 1545 1547
1477 1473 1470 1467 1464 1461 1460 1459 1457 1454 1452 1450 1450 1447 1439 1437 1436 1439 1441 1445 1447 1451 1459 1466 1473 1478 1484 1490 1493 1496 1502 1504 1510 1515 1521 1525 1530 1536 1536 1536 1538 1541 1544
1472 1469 1466 1462 1459 1456 1453 1453 1453 1449 1446 1446 1447 1449 1443 1433 1426 1428 1429 1434 1439 1441 1449 1457 1462 1467 1475 1481 1485 1488 1493 1498 1501 1506 1515 1519 1524 1530 1533 1533 1535 1537 1539
1466 1463 1460 1457 1453 1451 1449 1449 1448 1445 1444 1441 1440 1443 1441 1438 1432 1423 1422 1424 1430 1432 1438 1445 1452 1458 1466 1471 1476 1479 1485 1490 1489 1500 1508 1512 1518 1524 1527 1529 1531 1533 1536
1460 1457 1455 1452 1449 1446 1444 1443 1440 1439 1440 1438 1436 1433 1435 1434 1430 1428 1424 1420 1422 1423 1426 1434 1442 1448 1455 1461 1466 1471 1476 1481 1485 1490 1496 1505 1511 1517 1521 1525 1527 1529 1531
1452 1450 1448 1445 1443 1440 1438 1435 1434 1434 1434 1433 1430 1429 1429 1432 1425 1425 1417 1417 1418 1413 1417 1421 1428 1437 1446 1451 1457 1463 1469 1473 1477 1483 1491 1497 1505 1509 1515 1520 1522 1525 1527
1446 1443 1441 1438 1436 1434 1432 1429 1427 1427 1427 1425 1423 1423 1422 1424 1422 1419 1422 1421 1412 1409 1410 1412 1418 1424 1434 1441 1447 1454 1459 1466 1469 1466 1482 1490 1499 1504 1509 1514 1517 1520 1523
1439 1436 1433 1430 1428 1427 1425 1423 1421 1420 1419 1418 1417 1418 1417 1417 1416 1414 1415 1417 1410 1413 1403 1401 1409 1416 1423 1430 1436 1444 1450 1456 1462 1467 1474 1480 1491 1496 1502 1508 1511 1515 1518
1431 1428 1425 1423 1421 1419 1418 1416 1414 1413 1412 1411 1411 1410 1410 1408 1407 1408 1409 1410 1415 1408 1403 1397 1401 1405 1412 1419 1426 1432 1441 1448 1454 1460 1466 1475 1482 1488 1494 1501 1505 1509 1512
1424 1420 1417 1415 1413 1411 1410 1409 1406 1405 1404 1404 1403 1402 1402 1402 1402 1401 1404 1403 1409 1407 1404 1397 1392 1397 1405 1409 1414 1423 1431 1439 1446 1451 1458 1465 1472 1480 1487 1493 1497 1504 1506
1417 1413 1410 1407 1405 1403 1402 1400 1398 1397 1396 1395 1395 1395 1396 1396 1395 1395 1398 1401 1398 1402 1392 1392 1388 1388 1392 1400 1404 1411 1421 1427 1434 1441 1449 1456 1463 1471 1479 1484 1489 1494 1501
1409 1406 1402 1399 1396 1394 1393 1392 1390 1389 1388 1387 1387 1388 1387 1389 1389 1389 1390 1392 1393 1395 1395 1385 1382 1385 1385 1390 1395 1401 1408 1416 1422 1430 1438 1446 1454 1462 1470 1475 1473 1481 1491
1402 1398 1395 1391 1388 1386 1384 1383 1381 1380 1379 1379 1379 1379 1380 1382 1382 1383 1385 1385 1384 1384 1386 1383 1379 1388 1379 1380 1386 1391 1397 1405 1414 1419 1429 1436 1445 1453 1460 1466 1468 1477 1484
1394 1390 1386 1383 1380 1378 1376 1374 1373 1371 1370 1370 1371 1372 1372 1374 1376 1378 1380 1380 1381 1381 1381 1381 1379 1376 1377 1375 1375 1380 1388 1394 1402 1409 1418 1426 1434 1442 1450 1457 1463 1468 1476
1386 1382 1378 1374 1371 1369 1367 1365 1364 1363 1363 1363 1363 1364 1365 1367 1369 1371 1373 1374 1375 1375 1376 1375 1374 1371 1368 1369 1371 1377 1380 1385 1392 1401 1409 1415 1422 1429 1439 1446 1452 1458 1465
1379 1374 1370 1366 1363 1361 1359 1359 1359 1357 1356 1356 1356 1357 1358 1360 1362 1364 1366 1368 1369 1369 1369 1372 1368 1367 1360 1366 1368 1369 1372 1376 1380 1386 1397 1403 1412 1417 1426 1431 1442 1449 1455
1372 1367 1362 1358 1355 1353 1352 1351 1351 1351 1350 1349 1350 1351 1351 1353 1355 1356 1357 1359 1360 1361 1361 1364 1360 1357 1358 1366 1362 1361 1364 1366 1372 1375 1386 1394 1402 1410 1418 1425 1432 1439 1446
1367 1361 1356 1352 1348 1346 1344 1343 1343 1344 1343 1343 1343 1343 1344 1344 1346 1348 1349 1349 1350 1350 1351 1351 1350 1350 1353 1355 1357 1358 1358 1359 1362 1365 1373 1382 1389 1397 1407 1415 1422 1430 1438
1363 1358 1352 1347 1343 1340 1338 1336 1337 1336 1336 1335 1335 1335 1335 1336 1337 1340 1341 1341 1341 1340 1342 1343 1344 1345 1346 1345 1349 1350 1355 1360 1359 1361 1361 1371 1380 1390 1397 1404 1412 1422 1430
1361 1356 1350 1345 1340 1336 1334 1332 1331 1330 1329 1329 1328 1327 1328 1328 1329 1332 1333 1334 1334 1334 1335 1336 1337 1338 1336 1339 1338 1343 1349 1353 1356 1357 1356 1365 1372 1379 1386 1391 1401 1413 1420